Location: Carabito
(9.8355°N, 67.9249°W)
Time: 21:06:08
(UTC+00:00)

IRS-1D - Pass Details

Date: 23 May 2024
Orbit: 738 x 813 km, 98.8° (Epoch: 25 June)

Event Time Altitude Azimuth Distance (km) Brightness Sun altitude
Rises 08:20:29 0° 1° (N) 3,312 7.2 -25.3°
Reaches altitude 10° 08:22:56 10° 355° (N) 2,375 6.3 -24.8°
Enters shadow 08:27:24 42° 300° (WNW) 1,114 4.0 -23.9°
